Regional Weather Roundup
Issued by NWS

Home | Current Version | Previous Version | Graphics & Text | Print | Product List | Glossary On
Versions: 1 2 3 4 5 6 7 8 9 10 11 12 13 14 15 16 17 18 19 20 21 22 23 24 25 26 27 28 29 30 31 32 33 34 35 36 37 38 39 40 41 42 43 44 45 46 47 48 49 50
000
ASUS45 KBOI 281610
RWRID
WEATHER ROUNDUP FOR IDAHO
NATIONAL WEATHER SERVICE BOISE ID
900 AM MST SAT FEB 28 2015

NOTE: "FAIR" INDICATES FEW OR NO CLOUDS BELOW 12000 FEET
WITH NO SIGNIFICANT WEATHER AND/OR OBSTRUCTIONS TO VISIBILITY

IDZ012-014-281700-
SOUTHWEST IDAHO


CITY           SKY/WX    TMP DP  RH WIND       PRES   REMARKS
BOISE          CLOUDY    36  32  85 W3        29.81R
CALDWELL       CLOUDY    37  28  70 CALM      29.84R
MOUNTAIN HOME  CLOUDY    37  22  55 W8        29.79R WCI  31
$$

IDZ016-017-281700-
SOUTHCENTRAL IDAHO


CITY           SKY/WX    TMP DP  RH WIND       PRES   REMARKS
BURLEY         MOSUNNY   30  16  56 E15       29.74R WCI  19
JEROME         CLOUDY    33  12  41 NE26      29.73R WCI  20
TWIN FALLS     CLOUDY    31  19  61 E17       29.74R WCI  19
$$

IDZ019>023-281700-
SOUTHEAST IDAHO


CITY           SKY/WX    TMP DP  RH WIND       PRES   REMARKS
IDAHO FALLS    SUNNY     24  11  57 NE16      29.81S WCI  11
POCATELLO      MOSUNNY   25  18  74 NE18      29.77R WCI  11
REXBURG        SUNNY     20   8  60 NE18      29.83R WCI   5
$$

IDZ006-010-011-018-031-032-281700-
CENTRAL IDAHO MOUNTAINS


CITY           SKY/WX    TMP DP  RH WIND       PRES   REMARKS
MCCALL         CLOUDY    30  21  69 NW8       29.75R WCI  22
HAILEY         MOSUNNY   28  19  69 NW9       29.76R WCI  20
STANLEY          N/A     15   9  76 E5        29.77R WCI   8
SALMON         PTSUNNY   27  12  54 E7        29.93R WCI  19
CHALLIS        CLOUDY    27  14  58 N12       29.82R WCI  17
$$

IDZ002-004-006-007-026-281700-
NORTHERN IDAHO


CITY           SKY/WX    TMP DP  RH WIND       PRES   REMARKS
LEWISTON       SUNNY     35  23  61 CALM      30.01R
LOWELL           N/A     35  11  36 VRB6      30.01R WCI  30
COEUR D`ALENE  SUNNY     28   9  43 N21       30.10R WCI  15
MULLAN PASS    SUNNY     10   2  69 VRB6      29.88R WCI   0
$$


USA.gov is the U.S. government's official web portal to all federal, state and local government web resources and services.